You are listening to:
KSCH Gnd/Twr - Schenectady, New York, United States

KSCH 282046Z 00000KT 10SM BKN008 OVC014 10/09 A2995

If stream doesn't start automatically press the play button
If stream stops then reload player then press play